Location: Unspecified
(42.9300°N, 71.1866°W)
Time: 02:57:54
(UTC-04:00)

Cosmos 1674 - Visible Passes

Search period start: 26 October 2014 00:00
Search period end: 04 November 2014 23:00
Orbit: 514 x 540 km, 82.5° (Epoch: 24 October)

Date Brightness Start Highest point End Pass type
(mag) Time Alt. Az. Time Alt. Az. Time Alt. Az.
26 Oct 4.7 05:00:12 10° SSE 05:03:40 30° E 05:07:10 10° NNE visible
26 Oct 4.1 06:36:45 10° WSW 06:39:40 20° WNW 06:42:36 10° NNW visible
27 Oct 4.8 04:48:55 10° SSE 04:52:17 28° E 04:55:41 10° NNE visible
27 Oct 4.0 06:25:10 10° WSW 06:28:13 21° WNW 06:31:19 10° NNW visible
28 Oct 5.0 04:37:37 10° SE 04:40:53 25° E 04:44:10 10° NE visible
28 Oct 3.9 06:13:34 10° SW 06:16:46 23° WNW 06:19:59 10° NNW visible
29 Oct 5.1 04:28:18 20° ESE 04:29:28 23° E 04:32:37 10° NE visible
29 Oct 3.8 06:03:43 20° WSW 06:05:18 25° WNW 06:08:38 10° NNW visible
30 Oct 5.4 04:18:59 19° ENE 04:18:59 19° ENE 04:21:02 10° NE visible
30 Oct 3.8 05:54:20 27° WNW 05:54:20 27° WNW 05:57:15 10° NNW visible
31 Oct 5.9 04:09:01 12° NE 04:09:01 12° NE 04:09:25 10° NE visible
31 Oct 4.4 05:44:20 19° NNW 05:44:20 19° NNW 05:45:51 10° NNW visible
01 Nov 5.1 05:33:59 12° NNW 05:33:59 12° NNW 05:34:25 10° N visible
